Starlink 2504

operational
NORAD ID: 48328 Int'l Des: 2021-036 Owner: SPXS Country: US Constellation: starlink
LEOCIRCULARSTARLINK_TYPE

Über Starlink 2504

Beschreibung wird geladen...

Live-Position

3D-Globus wird geladen...

Nächste Überflüge

Höhenverlauf

Altitude vs Time

uPlot chart will show altitude changes over time

Zweizeiliger Elementsatz

1 48328U 21036BE 25353.47540533 .00000916 00000-0 80346-4 0 9997
2 48328 53.0546 101.7117 0001020 64.7893 295.3201 15.06401420255948
Epoch: 19. Dez. 2025 • Age: 10 hours

Aktueller Status

Höhe 550.0 km
Geschwindigkeit 7.59 km/s
Subsatellitenpunkt 37.81°N, 167.47°W
Startdatum 29. Apr. 2021
Alter 4.6 years
Typ internet

Technische Details

Klassifizierung Payload
Masse 260.00 kg
Trockenmasse 248.00 kg
Gesamtmasse 260.00 kg
Länge 0.20 m
Durchmesser 2.80 m
Spannweite 9.00 m
Form Box + pan
Hersteller SPXS
Bus-Typ Starlink
Phasenstatus In Orbit
Besitzer/Staat SPXS/US

Große Konstellationen

Loading constellations...